Probability
77 100 100 100 100 100 100 100 100 100 100 100 100 100 100 100 100 100 100 100 100 100 100 100 100 100 100 100 100 100 100 100 100 100 100 100 100 100 100 97 90 77 97
90 100 100 100 100 100 100 100 100 100 100 100 100 100 100 100 100 100 100 100 100 100 100 100 100 100 100 100 100 100 100 100 100 100 100 100 100 100 97 87 87 90 97
100 100 100 100 100 100 100 100 100 100 100 100 100 100 100 100 100 100 100 100 100 100 100 100 100 100 100 100 100 100 100 100 100 100 100 97 100 100 94 90 97 100 100
100 100 100 100 100 100 100 100 100 100 100 100 100 100 100 100 100 100 100 100 100 100 100 100 100 100 100 100 100 100 100 100 100 100 87 97 94 97 94 94 94 94 94
100 100 100 100 100 100 100 100 100 100 100 100 100 100 100 100 100 100 100 100 100 100 100 100 100 100 100 100 100 100 100 100 100 74 58 84 90 97 97 94 97 90 90
100 100 100 100 100 100 100 100 100 100 100 100 100 100 100 100 100 100 100 100 100 100 100 100 100 100 100 94 97 97 97 94 84 39 48 65 84 94 94 90 81 77 81
100 100 100 100 100 100 100 100 100 100 100 100 100 100 100 100 100 100 100 100 100 100 100 100 100 100 94 94 97 97 97 94 45 35 32 55 77 97 90 90 84 81 68
100 100 100 100 100 100 100 100 100 100 100 100 100 100 100 100 100 100 100 100 100 100 100 100 97 94 94 94 97 97 100 87 48 32 45 55 71 97 94 94 87 84 71
100 100 100 100 100 100 100 100 100 100 100 100 100 100 100 100 100 100 100 100 100 100 97 97 94 94 94 94 90 90 97 77 10 26 26 35 74 97 97 97 94 84 81
100 97 97 97 97 97 100 100 100 100 100 100 100 100 100 100 100 100 100 100 100 97 94 90 94 94 94 87 84 74 81 39 10 19 23 19 74 97 97 94 90 84 74
97 97 97 97 97 97 97 100 100 100 100 100 100 100 100 100 100 100 100 100 97 97 94 94 94 90 97 87 90 81 35 6 3 10 19 39 87 90 81 87 90 77 71
97 94 97 97 97 97 97 94 94 97 97 97 97 100 100 100 100 100 100 100 97 97 94 94 94 97 77 48 42 42 13 3 0 6 13 58 87 77 77 77 81 77 74
94 87 87 87 87 87 87 94 94 94 94 94 94 100 94 90 94 94 87 87 90 94 84 87 87 77 52 39 16 16 10 0 3 0 16 58 90 84 71 77 71 68 71
81 81 81 84 84 84 84 87 90 90 94 94 94 97 90 87 84 81 81 81 77 74 58 61 58 39 29 23 6 3 3 0 3 10 19 58 84 84 65 61 58 55 58
77 74 74 74 81 84 81 81 77 81 84 90 87 94 87 84 81 71 65 65 65 52 48 45 35 29 29 13 6 0 3 6 6 10 19 55 71 65 61 55 42 42 35
68 71 71 68 65 65 61 68 71 68 71 71 74 84 81 71 61 61 48 55 45 42 29 26 23 23 19 6 3 0 0 0 0 0 13 35 48 52 58 45 39 29 26
65 71 68 65 55 58 58 58 55 52 61 65 58 61 58 55 48 42 39 32 35 32 19 23 19 13 6 0 0 0 0 0 0 0 0 3 26 29 35 29 29 19 19
42 52 52 55 52 48 48 55 45 45 42 45 45 48 52 52 35 23 19 23 26 19 19 16 13 6 0 0 0 0 0 0 0 0 3 3 6 6 16 16 10 10 13
35 42 42 42 45 45 35 32 32 29 32 29 29 32 42 39 32 19 16 16 10 10 13 13 6 3 0 0 0 0 0 0 0 0 0 0 0 0 0 6 6 6 6
35 29 32 29 26 19 13 16 19 19 16 13 13 16 13 19 26 23 19 10 6 3 3 3 3 3 0 0 0 0 0 0 0 0 0 0 0 0 0 0 3 3 3
23 19 19 19 16 13 6 16 19 16 19 16 10 6 3 6 10 10 6 0 3 3 3 3 3 3 0 0 0 0 0 0 0 0 0 0 0 0 0 0 0 0 0
13 19 10 13 13 10 10 6 6 3 3 10 6 0 0 0 3 3 0 0 0 3 3 3 3 3 0 0 0 0 0 0 0 0 0 0 0 0 0 0 0 0 0
10 6 10 6 10 10 3 6 3 0 0 6 0 3 0 0 0 0 0 0 0 0 3 3 0 0 0 0 0 0 0 0 0 0 0 0 0 0 0 0 0 0 0
6 6 6 3 3 10 3 6 6 6 6 3 3 0 0 0 0 0 0 0 0 0 0 0 0 0 0 0 0 0 0 0 0 0 0 0 0 0 0 0 0 0 0
3 3 6 6 3 3 3 6 6 6 3 3 0 0 0 0 0 0 0 0 0 0 0 0 0 0 0 0 0 0 0 0 0 0 0 0 0 0 0 0 0 0 0
3 6 3 3 3 3 0 3 6 6 0 0 0 0 0 0 0 0 0 0 0 0 0 0 0 0 0 0 0 0 0 0 0 0 0 0 0 0 0 0 0 0 0
Height
5883 5884 5885 5886 5888 5889 5890 5891 5892 5893 5894 5895 5895 5896 5898 5899 5899 5900 5901 5901 5901 5901 5901 5901 5901 5901 5900 5900 5900 5899 5899 5898 5898 5897 5897 5897 5896 5896 5896 5896 5896 5895 5895
5883 5884 5884 5886 5887 5888 5888 5889 5890 5891 5893 5894 5895 5896 5897 5898 5899 5900 5900 5901 5901 5901 5901 5901 5901 5901 5900 5900 5900 5899 5899 5898 5898 5897 5897 5897 5897 5896 5896 5896 5896 5895 5895
5882 5882 5883 5884 5885 5886 5887 5888 5889 5890 5891 5893 5894 5895 5896 5897 5898 5899 5899 5900 5900 5901 5901 5901 5901 5900 5900 5900 5899 5899 5899 5898 5898 5898 5897 5897 5897 5897 5897 5896 5896 5896 5895
5880 5881 5882 5883 5884 5885 5885 5886 5887 5888 5889 5891 5892 5894 5895 5896 5897 5897 5898 5899 5899 5900 5900 5900 5900 5900 5900 5899 5899 5899 5899 5898 5898 5898 5898 5897 5897 5897 5897 5896 5896 5896 5895
5879 5879 5880 5881 5882 5883 5884 5884 5885 5886 5887 5888 5890 5891 5893 5894 5895 5896 5897 5898 5898 5898 5899 5899 5899 5899 5899 5899 5899 5899 5899 5898 5898 5898 5898 5898 5897 5897 5897 5896 5896 5895 5895
5877 5877 5878 5879 5880 5881 5882 5882 5883 5884 5885 5886 5887 5889 5890 5891 5893 5894 5894 5895 5896 5897 5897 5898 5898 5898 5898 5898 5898 5898 5898 5898 5898 5898 5898 5897 5897 5897 5896 5896 5896 5895 5895
5875 5875 5876 5876 5877 5878 5879 5880 5881 5882 5883 5884 5885 5886 5888 5889 5890 5891 5892 5893 5894 5895 5895 5896 5896 5897 5897 5897 5897 5898 5898 5898 5898 5898 5897 5897 5897 5897 5896 5896 5896 5895 5895
5872 5873 5873 5874 5875 5876 5876 5877 5878 5879 5880 5881 5882 5884 5885 5886 5887 5889 5889 5890 5891 5892 5893 5894 5895 5895 5896 5896 5896 5896 5897 5897 5897 5897 5897 5897 5896 5896 5896 5896 5895 5895 5895
5870 5870 5871 5872 5872 5873 5874 5874 5875 5876 5877 5878 5879 5881 5882 5884 5885 5886 5887 5888 5888 5889 5890 5891 5892 5893 5894 5894 5894 5895 5895 5896 5896 5896 5896 5896 5896 5895 5895 5895 5895 5895 5895
5867 5867 5868 5868 5869 5870 5870 5871 5872 5873 5874 5875 5876 5878 5879 5880 5882 5883 5884 5885 5886 5886 5887 5888 5889 5890 5891 5892 5892 5893 5893 5894 5894 5894 5894 5894 5895 5895 5894 5894 5894 5894 5894
5863 5864 5865 5865 5866 5866 5867 5868 5869 5870 5871 5872 5873 5874 5875 5877 5878 5880 5881 5882 5882 5883 5884 5885 5886 5887 5888 5889 5890 5891 5891 5892 5892 5892 5893 5893 5893 5893 5893 5893 5893 5893 5893
5860 5861 5861 5862 5862 5863 5863 5864 5865 5866 5868 5869 5870 5871 5872 5874 5875 5876 5877 5878 5879 5880 5881 5882 5883 5884 5885 5887 5887 5888 5889 5890 5890 5890 5891 5891 5892 5892 5892 5892 5892 5892 5891
5856 5857 5857 5858 5858 5859 5859 5860 5862 5863 5864 5865 5866 5867 5868 5870 5871 5873 5874 5874 5875 5876 5878 5879 5880 5881 5882 5884 5885 5885 5886 5887 5887 5888 5888 5889 5889 5890 5890 5890 5890 5890 5890
5852 5853 5853 5853 5854 5854 5855 5856 5857 5858 5859 5861 5862 5863 5865 5866 5867 5868 5870 5870 5871 5872 5874 5875 5876 5878 5879 5880 5881 5882 5883 5884 5885 5885 5886 5886 5886 5887 5887 5887 5887 5887 5887
5847 5848 5848 5849 5849 5850 5850 5851 5852 5852 5854 5855 5857 5858 5860 5861 5862 5864 5865 5866 5867 5868 5869 5871 5872 5874 5875 5876 5877 5879 5880 5881 5881 5882 5883 5883 5884 5884 5884 5885 5885 5885 5884
5842 5842 5842 5843 5844 5845 5845 5846 5846 5847 5849 5850 5851 5852 5854 5855 5857 5858 5859 5861 5862 5863 5864 5866 5868 5869 5871 5872 5873 5875 5876 5877 5878 5879 5879 5880 5880 5881 5881 5881 5881 5881 5881
5837 5837 5837 5837 5838 5839 5839 5840 5841 5841 5842 5844 5845 5846 5848 5849 5851 5853 5854 5855 5856 5857 5859 5861 5863 5864 5866 5867 5868 5870 5871 5873 5874 5875 5875 5876 5877 5877 5877 5877 5877 5877 5877
5831 5831 5831 5831 5832 5833 5834 5834 5835 5835 5836 5838 5839 5840 5842 5843 5845 5846 5848 5849 5850 5852 5854 5856 5857 5859 5861 5862 5863 5865 5867 5868 5869 5870 5871 5872 5872 5873 5873 5873 5873 5873 5873
5824 5825 5825 5825 5826 5827 5827 5828 5828 5829 5830 5831 5833 5834 5835 5837 5838 5839 5841 5843 5844 5846 5848 5850 5852 5854 5855 5857 5858 5860 5861 5863 5864 5865 5866 5867 5868 5868 5868 5868 5868 5868 5868
5818 5818 5818 5819 5819 5820 5820 5820 5821 5823 5824 5824 5825 5827 5828 5830 5831 5832 5834 5836 5838 5841 5842 5844 5845 5847 5849 5851 5853 5854 5856 5858 5859 5860 5861 5862 5863 5863 5863 5863 5863 5863 5863
5811 5811 5811 5811 5812 5812 5813 5814 5815 5816 5816 5818 5818 5819 5820 5823 5824 5826 5827 5829 5831 5834 5836 5838 5839 5841 5843 5845 5847 5849 5850 5853 5854 5855 5856 5857 5857 5858 5858 5858 5857 5857 5857
5805 5804 5804 5804 5804 5805 5806 5807 5808 5809 5810 5811 5811 5812 5813 5814 5817 5818 5819 5822 5824 5827 5830 5832 5834 5835 5837 5839 5842 5843 5845 5847 5848 5849 5850 5851 5852 5852 5852 5852 5851 5851 5850
5798 5797 5797 5797 5797 5797 5798 5799 5800 5801 5803 5804 5804 5805 5806 5808 5809 5811 5812 5815 5817 5820 5823 5826 5828 5830 5832 5834 5836 5838 5839 5841 5843 5844 5844 5845 5846 5846 5845 5845 5845 5844 5844
5791 5791 5790 5790 5790 5790 5790 5791 5792 5794 5795 5796 5797 5798 5800 5801 5802 5804 5806 5808 5810 5813 5816 5819 5822 5824 5826 5828 5830 5832 5834 5836 5837 5838 5838 5839 5839 5839 5839 5839 5838 5837 5837
5784 5784 5783 5783 5783 5783 5783 5784 5785 5786 5787 5788 5790 5791 5793 5794 5796 5798 5800 5802 5804 5806 5810 5813 5815 5818 5820 5822 5824 5826 5828 5830 5831 5832 5832 5833 5833 5832 5832 5831 5831 5830 5829
5777 5776 5776 5776 5776 5776 5776 5776 5777 5779 5780 5781 5782 5784 5786 5787 5789 5792 5794 5796 5798 5800 5803 5806 5809 5811 5813 5816 5818 5820 5822 5823 5824 5825 5826 5826 5826 5825 5825 5824 5823 5823 5822
Wind_Speed
2 3 3 4 5 6 5 5 4 4 3 3 3 2 2 3 4 5 7 8 9 10 10 10 10 10 9 8 7 6 6 5 5 5 5 4 4 4 3 3 2 2 1
3 4 4 6 7 7 7 6 5 5 4 4 4 4 3 4 4 5 6 7 8 9 10 10 10 9 8 7 6 6 5 5 5 5 4 3 4 3 3 3 2 2 2
5 5 6 7 8 8 8 7 7 6 6 6 5 5 5 5 5 5 6 7 8 9 9 9 9 9 8 7 6 5 5 5 5 4 3 3 3 3 3 2 3 2 2
6 6 7 8 9 10 9 9 8 8 8 7 7 7 7 6 6 6 6 7 7 8 8 9 9 9 7 6 6 5 5 4 4 3 3 2 2 2 3 3 3 3 3
8 7 8 9 10 10 10 10 10 9 9 9 9 9 9 8 8 8 8 7 8 8 8 8 9 8 7 6 6 5 4 4 3 3 2 2 2 3 3 3 3 3 3
8 9 9 10 11 11 11 10 11 11 11 11 11 11 10 10 10 9 9 9 8 9 8 8 9 8 8 7 6 5 5 4 3 3 3 2 3 3 3 4 4 4 4
9 10 10 11 12 12 12 12 12 12 12 13 13 12 12 11 11 11 11 10 10 10 9 9 9 8 8 8 7 6 5 5 4 3 3 2 3 3 3 4 4 4 4
10 10 11 12 13 14 14 13 13 14 14 14 14 14 13 13 13 13 13 12 11 11 10 10 9 9 9 8 8 7 6 6 5 4 4 3 3 3 3 3 4 4 4
12 12 12 13 14 15 14 14 14 15 15 15 16 16 15 15 14 14 14 14 13 12 12 11 10 10 10 9 9 8 7 7 6 5 5 5 4 4 4 4 4 4 4
14 14 14 15 16 16 16 16 16 16 16 17 17 17 17 17 16 16 16 15 14 14 13 12 11 11 11 10 9 9 9 8 7 7 7 6 6 6 5 5 5 5 5
16 16 16 17 17 18 18 18 18 18 18 18 18 18 18 18 17 17 17 16 16 15 15 14 13 13 12 11 10 10 10 10 9 9 9 8 8 7 7 7 6 6 6
16 16 16 17 19 18 19 19 20 20 20 20 20 19 20 19 19 18 18 18 17 17 16 16 15 15 13 12 12 12 12 11 11 11 10 10 9 9 9 9 9 8 8
18 18 18 18 20 20 20 20 21 21 22 22 22 22 21 21 20 20 20 19 19 18 18 18 17 16 15 14 14 14 13 13 13 13 12 11 11 11 11 11 11 10 10
21 21 21 21 21 22 23 22 23 23 24 24 24 23 23 23 22 23 22 21 21 20 20 19 19 18 16 16 16 16 15 15 14 14 14 13 13 13 12 12 13 13 12
24 24 23 24 24 24 23 23 24 26 26 26 26 25 24 24 24 23 24 23 22 22 22 21 20 19 18 17 16 17 17 17 16 16 15 15 14 14 14 14 14 15 15
25 25 25 25 24 25 25 25 27 27 27 27 27 26 24 25 25 25 24 25 24 24 24 23 21 20 20 20 19 18 19 18 18 17 17 16 16 16 16 16 16 17 17
26 26 26 26 26 26 26 26 27 27 27 27 27 27 27 26 26 26 27 26 26 25 25 25 24 22 20 21 21 21 20 19 19 18 18 19 18 18 19 18 18 18 19
28 27 28 27 27 28 27 28 28 27 28 29 29 29 29 29 29 28 29 28 27 27 26 26 25 24 23 22 22 22 21 21 21 20 20 20 20 20 20 20 20 20 20
28 28 28 30 29 28 28 29 29 29 30 30 31 31 31 30 30 31 31 30 28 27 27 26 26 26 25 24 24 23 22 22 23 22 21 21 21 21 21 21 21 21 22
28 29 29 29 29 29 30 30 29 30 31 32 32 32 32 32 31 31 31 31 30 29 28 27 26 26 27 25 25 24 24 24 23 23 23 23 23 23 23 23 22 23 23
28 29 29 28 29 29 29 29 30 30 31 32 33 33 32 32 32 30 30 30 30 30 30 28 26 27 27 27 26 26 26 26 25 24 24 25 24 24 25 25 25 25 25
28 28 28 28 28 29 29 30 30 30 31 32 33 32 31 31 31 29 29 30 31 30 29 29 28 28 26 26 26 27 27 27 26 26 26 26 26 27 27 27 27 27 27
27 27 28 27 27 28 29 29 29 30 31 31 32 32 32 31 31 31 27 27 29 28 28 27 27 28 28 27 26 26 25 25 27 26 26 26 27 28 28 28 29 29 29
26 27 27 27 27 27 27 28 28 29 30 30 30 29 30 31 31 30 29 27 27 28 28 27 26 28 28 27 28 27 26 26 27 26 27 27 28 29 29 30 30 30 30
27 27 27 27 27 27 27 27 27 27 28 29 29 29 28 28 28 28 26 26 27 27 29 28 27 28 29 29 29 28 28 27 27 27 27 28 29 30 30 31 31 32 32
27 27 27 27 27 27 27 26 26 25 25 26 28 29 29 27 26 27 27 27 27 27 26 27 26 27 28 28 28 27 27 27 27 28 29 30 30 30 31 30 31 31 31
Wind_Direction
289 265 265 256 248 243 235 224 217 212 213 223 232 260 300 321 333 340 342 343 342 340 339 339 340 341 339 340 342 346 349 352 355 360 5 10 10 6 2 359 354 338 322
271 261 258 253 245 244 242 235 229 226 229 236 247 254 273 295 312 324 331 335 335 334 334 334 336 337 335 335 337 342 343 345 346 353 360 8 8 4 360 355 352 343 338
280 268 257 255 246 244 245 243 238 235 235 238 246 252 262 277 293 303 315 324 325 327 330 330 330 331 331 331 332 334 334 336 338 344 351 2 5 360 355 353 355 357 360
285 273 262 257 248 243 245 247 246 242 241 242 246 251 258 266 278 288 298 309 316 320 324 325 326 325 325 326 325 324 321 322 324 333 335 343 349 353 360 360 360 5 7
282 271 265 260 253 248 246 248 249 247 245 246 248 250 255 261 268 278 286 296 305 312 315 316 321 320 318 316 314 312 307 303 306 317 323 325 334 345 358 5 6 10 8
277 266 261 257 254 251 248 248 248 248 248 248 249 250 254 258 265 273 278 285 291 298 302 306 311 312 309 305 302 299 294 283 285 296 309 317 332 345 354 1 3 4 2
274 265 259 255 254 253 251 250 248 248 249 251 253 254 256 259 265 272 273 276 282 291 295 296 300 300 298 295 291 286 281 273 273 279 285 301 320 334 348 357 358 353 350
274 268 264 261 257 257 257 252 248 248 250 250 252 256 257 259 263 269 272 272 276 282 285 285 289 289 289 289 283 277 274 267 266 267 273 286 307 320 331 343 347 341 334
274 272 266 264 261 258 258 254 250 249 251 251 251 254 257 260 262 268 269 271 272 276 278 278 280 282 282 282 277 272 269 266 260 261 266 279 295 304 310 314 322 326 320
276 274 267 265 264 260 257 254 252 251 250 250 252 252 256 259 261 264 264 267 267 269 272 273 272 274 276 276 273 269 266 262 259 259 261 272 283 290 296 297 299 305 309
278 273 268 265 264 260 257 255 253 253 252 251 251 251 253 256 257 260 261 263 262 262 267 268 266 266 269 269 267 265 263 259 258 258 259 266 274 280 284 285 285 291 296
280 275 269 266 264 264 261 257 256 255 254 252 250 251 253 255 255 257 258 260 261 261 262 262 262 261 262 263 261 261 260 258 256 257 258 262 268 273 276 279 279 284 289
280 276 272 270 266 264 263 261 257 258 257 254 252 252 253 255 254 254 257 258 258 257 258 260 259 259 257 258 257 257 257 257 256 256 257 260 265 269 271 277 279 282 286
281 277 271 269 267 266 263 261 257 259 259 256 254 254 255 256 256 254 254 258 256 255 256 257 257 257 256 255 255 255 256 254 254 256 258 261 263 266 268 275 278 281 283
279 278 274 268 267 265 262 261 258 260 259 257 257 255 255 255 255 254 253 255 255 254 253 254 255 256 255 254 253 254 254 253 253 255 257 261 263 264 267 271 276 280 280
276 276 273 268 266 264 262 261 260 259 255 254 254 252 254 255 254 255 253 252 254 253 253 252 252 255 256 255 253 253 252 251 253 255 256 260 262 264 267 269 273 277 279
273 273 272 271 267 266 265 264 263 262 257 255 253 251 253 255 255 255 255 252 253 252 253 252 251 254 256 256 252 252 250 251 251 252 256 259 262 266 268 269 273 276 277
272 271 270 269 269 268 266 264 263 262 258 256 255 255 254 254 255 257 256 254 254 253 253 254 253 252 252 254 251 249 250 250 250 252 255 259 263 266 268 269 272 275 277
273 272 271 270 270 268 265 262 262 260 258 258 256 257 258 256 256 257 255 254 254 254 254 255 253 251 250 250 247 247 248 248 249 250 254 257 261 264 267 270 273 274 276
273 273 272 269 268 267 264 261 261 260 258 258 256 256 258 258 257 258 253 251 251 254 252 252 252 248 247 247 246 246 246 247 247 250 252 257 261 263 266 269 271 273 275
273 272 272 270 268 268 268 265 263 262 259 257 257 257 256 258 258 258 253 252 251 253 250 250 247 247 245 244 245 244 245 244 248 251 253 257 261 263 266 267 269 272 274
272 271 271 271 270 269 268 266 264 262 259 255 255 258 258 257 254 255 251 248 249 249 247 246 245 245 244 243 242 242 244 246 250 252 254 258 261 264 266 267 269 272 274
271 270 269 272 272 270 268 266 264 263 259 258 256 255 256 257 254 254 252 249 247 246 248 247 246 245 244 241 239 241 245 250 252 255 256 258 262 266 268 270 271 271 274
272 271 271 271 270 267 266 265 264 264 261 258 259 255 254 254 253 255 252 252 249 246 246 247 247 244 243 242 241 242 245 251 255 257 258 261 265 268 270 272 273 274 276
275 275 272 271 271 269 267 265 263 262 259 257 254 252 254 255 252 250 249 248 247 244 244 246 245 243 241 243 244 245 248 253 257 258 261 264 267 269 270 272 274 275 277
275 275 273 271 270 269 267 265 261 260 257 254 252 252 249 252 251 248 248 247 247 244 242 240 240 240 240 240 241 244 250 254 258 260 263 266 268 269 271 272 275 276 277